Погода в Пятовске

Россия / Брянская область     52°39′16″N   32°41′57″E
темп.,
°C
ветер,
м/с
пор.,
м/с
влажн.,
%
обл.,
%
осадки,
мм/ч
давл.,
гПа
погр.,
м
21 апреля, ср
ср2100:00+4св4791100 0.0 1009458
03:00+3ссв3593100 0.0 1008349
06:00+3сз2593100 0.0 1008353
09:00+5сз357999 0.0 1009680
12:00+7зсз4569100 0.0 10091167
15:00+7зюз4570100 0.0 1010814
18:00+8юз4675100 0.4 1010716
21:00+5ю489092 0.6 1012155
22 апреля, чт
чт2200:00+6ююз51282100 0.0 1012390
03:00+6ююз41289100 0.3 1013313
06:00+5ююз499458 0.0 1013183
09:00+10ююз697787 0.1 1014452
12:00+14ююз710617 0.3 10141265
15:00+15юз8105814 2.0 10131633
18:00+13юз61066100 1.4 1013913
21:00+10ююз6147794 1.7 1014424
23 апреля, пт
пт2300:00+9ююз6148699 0.1 1013466
03:00+7ю489674 0.2 1013217
06:00+7ююз51097100 0.6 1012597
09:00+5зсз3591100 1.1 1015378
12:00+9зюз4561100 0.0 10151398
15:00+9з5555100 0.1 10141468
18:00+8з4559100 0.1 10141216
21:00+5з3775100 0.1 1014181
24 апреля, сб
сб2400:00+3з37815 0.0 1014136
03:00+1з38855 0.0 1014182
06:000з34875 0.0 101379
09:00+5з4566100 0.0 1013539
12:00+8з575497 0.4 10131807
15:00+7з7957100 1.3 10131832
18:00+6зсз795852 0.3 10141538
21:00+2з410745 0.3 1015255
25 апреля, вс
вс2500:00+1зюз5118199 0.0 1015298
03:00+1зюз612844 0.0 1015416
06:00−1зюз5118382 0.0 1015329
09:00+3з79565 0.0 10151201
12:00+4з7961100 0.1 10151590
15:00+5з796680 0.3 10161365
18:00+5з796490 0.4 10151367
21:00+1зюз4107824 0.4 1016228